BTK6080 WIII-YPPH

Flight info

Callsign BTK6080
Flight time N/A
Altitude 35000
Route RENDA B469 TOPIR L514 AVPAL Q38 JULIM
Aircraft A320/M-SDE3FGHIRWY/LB1

Departure

Time 2026-05-06 09:52
Airport Soekarno-Hatta International Airport (WIII)

Arrival

Time N/A
Airport Perth International Airport (YPPH)
Time Latitude Longitude Altitude Speed Heading
2026-05-06 09:22 -6.12014 106.65454 38 ft 0 kts 177°
2026-05-06 09:37 -6.12009 106.65454 38 ft 2 kts 176°
2026-05-06 09:37 -6.11989 106.65453 38 ft 3 kts 174°
2026-05-06 09:37 -6.11970 106.65451 38 ft 2 kts 175°
2026-05-06 09:37 -6.11951 106.65451 34 ft 3 kts 198°
2026-05-06 09:38 -6.11934 106.65460 35 ft 3 kts 230°
2026-05-06 09:38 -6.11925 106.65474 37 ft 1 kts 248°
2026-05-06 09:38 -6.11923 106.65479 38 ft 0 kts 248°
2026-05-06 09:41 -6.11927 106.65468 38 ft 4 kts 248°
2026-05-06 09:41 -6.11936 106.65448 37 ft 3 kts 246°
2026-05-06 09:41 -6.11952 106.65407 37 ft 9 kts 253°
2026-05-06 09:42 -6.11939 106.65344 36 ft 12 kts 306°
2026-05-06 09:42 -6.11882 106.65271 38 ft 13 kts 309°
2026-05-06 09:42 -6.11851 106.65239 38 ft 0 kts 325°
2026-05-06 09:42 -6.11853 106.65219 38 ft 7 kts 251°
2026-05-06 09:43 -6.11882 106.65146 38 ft 16 kts 248°
2026-05-06 09:43 -6.11926 106.65035 38 ft 16 kts 249°
2026-05-06 09:43 -6.11964 106.64937 38 ft 14 kts 249°
2026-05-06 09:43 -6.12000 106.64845 38 ft 14 kts 248°
2026-05-06 09:44 -6.12034 106.64761 38 ft 14 kts 248°
2026-05-06 09:44 -6.12082 106.64641 38 ft 19 kts 247°
2026-05-06 09:44 -6.12126 106.64536 38 ft 13 kts 248°
2026-05-06 09:44 -6.12156 106.64461 38 ft 12 kts 242°
2026-05-06 09:45 -6.12258 106.64461 37 ft 14 kts 154°
2026-05-06 09:45 -6.12336 106.64489 38 ft 15 kts 161°
2026-05-06 09:45 -6.12463 106.64538 38 ft 21 kts 158°
2026-05-06 09:45 -6.12592 106.64591 38 ft 19 kts 158°
2026-05-06 09:46 -6.12708 106.64638 38 ft 17 kts 158°
2026-05-06 09:46 -6.12817 106.64682 38 ft 20 kts 159°
2026-05-06 09:46 -6.12950 106.64734 38 ft 22 kts 158°
2026-05-06 09:46 -6.13100 106.64794 38 ft 23 kts 158°
2026-05-06 09:47 -6.13251 106.64855 38 ft 24 kts 158°
2026-05-06 09:47 -6.13408 106.64917 37 ft 24 kts 158°
2026-05-06 09:47 -6.13566 106.64980 38 ft 23 kts 158°
2026-05-06 09:47 -6.13697 106.65031 38 ft 17 kts 158°
2026-05-06 09:48 -6.13769 106.65044 37 ft 9 kts 208°
2026-05-06 09:48 -6.13804 106.64982 38 ft 16 kts 248°
2026-05-06 09:48 -6.13851 106.64864 37 ft 18 kts 248°
2026-05-06 09:48 -6.13895 106.64757 38 ft 16 kts 248°
2026-05-06 09:49 -6.13934 106.64662 38 ft 14 kts 249°
2026-05-06 09:49 -6.13967 106.64577 39 ft 12 kts 248°
2026-05-06 09:49 -6.13997 106.64503 38 ft 11 kts 249°
2026-05-06 09:49 -6.14035 106.64406 37 ft 17 kts 248°
2026-05-06 09:50 -6.14080 106.64312 39 ft 11 kts 227°
2026-05-06 09:50 -6.14106 106.64296 39 ft 0 kts 201°
2026-05-06 09:50 -6.14144 106.64293 39 ft 10 kts 170°
2026-05-06 09:51 -6.14188 106.64326 40 ft 7 kts 129°
2026-05-06 09:51 -6.14210 106.64360 40 ft 6 kts 121°
2026-05-06 09:51 -6.14215 106.64443 39 ft 18 kts 69°
2026-05-06 09:51 -6.14104 106.64725 38 ft 76 kts 68°
2026-05-06 09:52 -6.13834 106.65399 39 ft 132 kts 68°
2026-05-06 09:52 -6.13431 106.66397 72 ft 172 kts 67°
2026-05-06 09:52 -6.12977 106.67499 723 ft 170 kts 66°
2026-05-06 09:52 -6.12541 106.68603 1312 ft 171 kts 67°
2026-05-06 09:53 -6.12082 106.69768 1605 ft 190 kts 68°
2026-05-06 09:53 -6.11570 106.71060 1806 ft 214 kts 68°
2026-05-06 09:53 -6.10987 106.72533 2139 ft 238 kts 68°
2026-05-06 09:53 -6.10539 106.74208 2610 ft 255 kts 87°
2026-05-06 09:54 -6.10503 106.75992 3318 ft 261 kts 89°
2026-05-06 09:54 -6.10466 106.77827 4109 ft 264 kts 89°
2026-05-06 09:54 -6.10423 106.79678 4914 ft 266 kts 89°
2026-05-06 09:54 -6.10375 106.81549 5702 ft 269 kts 89°
2026-05-06 09:55 -6.10328 106.83427 6438 ft 273 kts 89°
2026-05-06 09:55 -6.10281 106.85344 7178 ft 275 kts 89°
2026-05-06 09:55 -6.10232 106.87277 7915 ft 278 kts 89°
2026-05-06 09:55 -6.10181 106.89230 8635 ft 281 kts 89°
2026-05-06 09:56 -6.10130 106.91203 9364 ft 283 kts 89°
2026-05-06 09:56 -6.10078 106.93198 10036 ft 286 kts 89°
2026-05-06 09:56 -6.10027 106.95223 10336 ft 304 kts 89°
2026-05-06 09:56 -6.09969 106.97434 10456 ft 327 kts 89°
2026-05-06 09:57 -6.10068 106.99778 10671 ft 342 kts 101°
2026-05-06 09:57 -6.10845 107.02060 11164 ft 348 kts 117°
2026-05-06 09:57 -6.12269 107.04003 11712 ft 354 kts 135°
2026-05-06 09:57 -6.14268 107.05457 12274 ft 359 kts 152°
2026-05-06 09:58 -6.16625 107.06357 12855 ft 363 kts 160°
2026-05-06 09:58 -6.19027 107.07179 13445 ft 365 kts 159°
2026-05-06 09:58 -6.21461 107.08011 13936 ft 369 kts 159°
2026-05-06 09:58 -6.23878 107.08840 14392 ft 373 kts 159°
2026-05-06 09:59 -6.26347 107.09688 14878 ft 376 kts 160°
2026-05-06 09:59 -6.28834 107.10547 15326 ft 380 kts 159°
2026-05-06 09:59 -6.31350 107.11416 15793 ft 383 kts 159°
2026-05-06 09:59 -6.33889 107.12291 16263 ft 386 kts 160°
2026-05-06 10:00 -6.36447 107.13169 16725 ft 389 kts 160°
2026-05-06 10:00 -6.38986 107.14040 17170 ft 392 kts 159°
2026-05-06 10:00 -6.41601 107.14882 17602 ft 396 kts 165°
2026-05-06 10:00 -6.44344 107.15313 18021 ft 401 kts 174°
2026-05-06 10:01 -6.47143 107.15552 18388 ft 404 kts 174°
2026-05-06 10:01 -6.49963 107.15795 18759 ft 407 kts 173°
2026-05-06 10:01 -6.52756 107.16037 19120 ft 409 kts 174°
2026-05-06 10:01 -6.55602 107.16284 19498 ft 411 kts 174°
2026-05-06 10:02 -6.58471 107.16533 19861 ft 414 kts 174°
2026-05-06 10:02 -6.61358 107.16782 20224 ft 416 kts 174°
2026-05-06 10:02 -6.64259 107.17033 20586 ft 419 kts 174°
2026-05-06 10:02 -6.67176 107.17286 20920 ft 421 kts 174°
2026-05-06 10:03 -6.70071 107.17535 21277 ft 423 kts 174°
2026-05-06 10:03 -6.73029 107.17788 21615 ft 426 kts 174°
2026-05-06 10:03 -6.75996 107.18042 21950 ft 428 kts 174°
2026-05-06 10:03 -6.78967 107.18298 22283 ft 430 kts 174°
2026-05-06 10:04 -6.81925 107.18556 22609 ft 432 kts 174°
2026-05-06 10:04 -6.84938 107.18818 22940 ft 435 kts 174°
2026-05-06 10:04 -6.87967 107.19081 23249 ft 437 kts 174°
2026-05-06 10:04 -6.91016 107.19345 23541 ft 439 kts 174°
2026-05-06 10:05 -6.94036 107.19607 23800 ft 441 kts 174°
2026-05-06 10:05 -6.97107 107.19875 24066 ft 443 kts 174°
2026-05-06 10:05 -7.00198 107.20146 24339 ft 445 kts 174°
2026-05-06 10:05 -7.03289 107.20416 24607 ft 446 kts 174°
2026-05-06 10:06 -7.06392 107.20688 24859 ft 448 kts 174°
2026-05-06 10:06 -7.09473 107.20959 25108 ft 449 kts 174°
2026-05-06 10:06 -7.12601 107.21233 25354 ft 451 kts 174°
2026-05-06 10:06 -7.15735 107.21504 25602 ft 452 kts 174°
2026-05-06 10:07 -7.18888 107.21773 25847 ft 454 kts 174°
2026-05-06 10:07 -7.22044 107.22041 26084 ft 456 kts 174°
2026-05-06 10:07 -7.25192 107.22428 26325 ft 456 kts 168°
2026-05-06 10:07 -7.28226 107.23277 26563 ft 457 kts 160°
2026-05-06 10:08 -7.31241 107.24319 26804 ft 458 kts 160°
2026-05-06 10:08 -7.34265 107.25362 27046 ft 460 kts 160°
2026-05-06 10:08 -7.37304 107.26408 27286 ft 461 kts 160°
2026-05-06 10:08 -7.40352 107.27455 27507 ft 463 kts 160°
2026-05-06 10:09 -7.43381 107.28493 27727 ft 464 kts 160°
2026-05-06 10:09 -7.46445 107.29539 27963 ft 465 kts 160°
2026-05-06 10:09 -7.49528 107.30594 28183 ft 466 kts 160°
2026-05-06 10:09 -7.52604 107.31649 28390 ft 468 kts 160°
2026-05-06 10:10 -7.55701 107.32711 28579 ft 469 kts 161°
2026-05-06 10:10 -7.58808 107.33777 28789 ft 471 kts 160°
2026-05-06 10:10 -7.61888 107.34835 28994 ft 472 kts 161°
2026-05-06 10:10 -7.65006 107.35907 29214 ft 473 kts 161°
2026-05-06 10:11 -7.68132 107.36977 29423 ft 474 kts 161°
2026-05-06 10:11 -7.71224 107.38032 29611 ft 475 kts 161°
2026-05-06 10:11 -7.74363 107.39104 29865 ft 475 kts 161°
2026-05-06 10:11 -7.77495 107.40177 30124 ft 474 kts 161°
2026-05-06 10:12 -7.80638 107.41256 30376 ft 473 kts 161°
2026-05-06 10:12 -7.83730 107.42319 30605 ft 473 kts 161°
2026-05-06 10:12 -7.86853 107.43394 30838 ft 472 kts 161°
2026-05-06 10:12 -7.89963 107.44464 31085 ft 472 kts 161°
2026-05-06 10:13 -7.93071 107.45534 31330 ft 471 kts 161°
2026-05-06 10:13 -7.96140 107.46590 31588 ft 470 kts 161°
2026-05-06 10:13 -7.99246 107.47660 31857 ft 469 kts 161°
2026-05-06 10:13 -8.02335 107.48722 32127 ft 468 kts 161°
2026-05-06 10:14 -8.05426 107.49783 32389 ft 467 kts 161°
2026-05-06 10:14 -8.08463 107.50826 32658 ft 466 kts 161°
2026-05-06 10:14 -8.11537 107.51882 32943 ft 465 kts 161°
2026-05-06 10:14 -8.14604 107.52936 33208 ft 464 kts 161°
2026-05-06 10:15 -8.16630 107.53633 33385 ft 464 kts 161°
2026-05-06 10:15 -8.19684 107.54683 33651 ft 463 kts 161°
2026-05-06 10:15 -8.23767 107.56087 33998 ft 462 kts 161°
2026-05-06 10:15 -8.26771 107.57115 34249 ft 460 kts 161°
2026-05-06 10:16 -8.29808 107.58155 34453 ft 460 kts 161°
2026-05-06 10:16 -8.31826 107.58849 34580 ft 461 kts 161°
2026-05-06 10:16 -8.34863 107.59897 34758 ft 461 kts 162°
2026-05-06 10:16 -8.38898 107.61290 34851 ft 461 kts 162°
2026-05-06 10:17 -8.43957 107.63038 34852 ft 461 kts 162°
2026-05-06 10:17 -8.50047 107.65146 34853 ft 461 kts 161°
2026-05-06 10:18 -8.56118 107.67263 34852 ft 461 kts 161°
2026-05-06 10:18 -8.62195 107.69384 34853 ft 461 kts 161°
2026-05-06 10:19 -8.68244 107.71486 34857 ft 462 kts 162°
2026-05-06 10:19 -8.74312 107.73603 34856 ft 462 kts 162°
2026-05-06 10:20 -8.80405 107.75733 34857 ft 462 kts 162°
2026-05-06 10:20 -8.86464 107.77847 34864 ft 462 kts 162°
2026-05-06 10:21 -8.92527 107.79958 34863 ft 462 kts 162°
2026-05-06 10:21 -8.98627 107.82084 34867 ft 462 kts 162°
2026-05-06 10:22 -9.04678 107.84195 34867 ft 462 kts 162°
2026-05-06 10:22 -9.10773 107.86328 34871 ft 462 kts 162°
2026-05-06 10:23 -9.16811 107.88447 34875 ft 461 kts 163°
2026-05-06 10:23 -9.22897 107.90568 34875 ft 462 kts 163°
2026-05-06 10:24 -9.28984 107.92689 34875 ft 461 kts 163°
2026-05-06 10:24 -9.35032 107.94804 34875 ft 462 kts 162°
2026-05-06 10:25 -9.41081 107.96929 34878 ft 462 kts 163°
2026-05-06 10:25 -9.47179 107.99066 34878 ft 462 kts 163°
2026-05-06 10:26 -9.53239 108.01184 34879 ft 462 kts 163°
2026-05-06 10:26 -9.59322 108.03315 34878 ft 462 kts 163°
2026-05-06 10:27 -9.65373 108.05435 34881 ft 462 kts 163°
2026-05-06 10:27 -9.71454 108.07568 34881 ft 462 kts 163°
2026-05-06 10:28 -9.77503 108.09694 34876 ft 462 kts 163°
2026-05-06 10:28 -9.83590 108.11821 34873 ft 462 kts 163°
2026-05-06 10:29 -9.89641 108.13940 34873 ft 462 kts 163°
2026-05-06 10:29 -9.95348 108.15945 34876 ft 462 kts 163°
2026-05-06 10:30 -10.01432 108.18088 34880 ft 462 kts 163°
2026-05-06 10:30 -10.07494 108.20219 34889 ft 462 kts 163°
2026-05-06 10:31 -10.13575 108.22349 34888 ft 462 kts 163°
2026-05-06 10:31 -10.19626 108.24481 34886 ft 462 kts 163°
2026-05-06 10:32 -10.25711 108.26627 34885 ft 462 kts 163°
2026-05-06 10:32 -10.31786 108.28762 34883 ft 461 kts 163°
2026-05-06 10:33 -10.37823 108.30883 34881 ft 461 kts 163°
2026-05-06 10:33 -10.43904 108.33020 34876 ft 461 kts 163°
2026-05-06 10:34 -10.49940 108.35151 34880 ft 461 kts 163°
2026-05-06 10:34 -10.56018 108.37297 34878 ft 461 kts 163°
2026-05-06 10:35 -10.62085 108.39435 34877 ft 461 kts 163°
2026-05-06 10:35 -10.68120 108.41568 34871 ft 461 kts 163°
2026-05-06 10:36 -10.74190 108.43706 34884 ft 461 kts 163°
2026-05-06 10:36 -10.80220 108.45833 34889 ft 460 kts 163°
2026-05-06 10:37 -10.86284 108.47981 34895 ft 460 kts 163°
2026-05-06 10:37 -10.92335 108.50120 34899 ft 459 kts 163°
2026-05-06 10:38 -10.98344 108.52238 34897 ft 459 kts 163°
2026-05-06 10:38 -11.04389 108.54375 34898 ft 459 kts 163°
2026-05-06 10:39 -11.10395 108.56512 34900 ft 459 kts 163°
2026-05-06 10:39 -11.16445 108.58661 34900 ft 459 kts 163°
2026-05-06 10:40 -11.22466 108.60788 34901 ft 460 kts 163°
2026-05-06 10:40 -11.28514 108.62918 34902 ft 460 kts 163°
2026-05-06 10:41 -11.34570 108.65066 34908 ft 460 kts 163°
2026-05-06 10:41 -11.40595 108.67207 34909 ft 460 kts 163°
2026-05-06 10:42 -11.46661 108.69362 34917 ft 460 kts 163°
2026-05-06 10:42 -11.52686 108.71503 34912 ft 461 kts 163°
2026-05-06 10:43 -11.58760 108.73653 34911 ft 461 kts 163°
2026-05-06 10:44 -11.67835 108.76875 34907 ft 460 kts 163°
2026-05-06 10:44 -11.73864 108.79028 34909 ft 460 kts 163°
2026-05-06 10:45 -11.79928 108.81183 34910 ft 460 kts 163°
2026-05-06 10:45 -11.85959 108.83318 34920 ft 460 kts 163°
2026-05-06 10:46 -11.92001 108.85476 34919 ft 460 kts 163°
2026-05-06 10:46 -11.98019 108.87628 34924 ft 460 kts 163°
2026-05-06 10:47 -12.04080 108.89780 34917 ft 460 kts 164°
2026-05-06 10:47 -12.10114 108.91862 34921 ft 459 kts 164°
2026-05-06 10:48 -12.16188 108.93940 34921 ft 459 kts 164°
2026-05-06 10:48 -12.22241 108.96033 34913 ft 458 kts 164°
2026-05-06 10:49 -12.28261 108.98118 34921 ft 458 kts 164°
2026-05-06 10:49 -12.34309 109.00220 34918 ft 458 kts 164°
2026-05-06 10:50 -12.40333 109.02313 34918 ft 458 kts 164°
2026-05-06 10:50 -12.46346 109.04409 34920 ft 458 kts 164°
2026-05-06 10:51 -12.52402 109.06510 34924 ft 458 kts 165°
2026-05-06 10:51 -12.58426 109.08598 34926 ft 459 kts 165°
2026-05-06 10:52 -12.64448 109.10691 34926 ft 459 kts 164°
2026-05-06 10:52 -12.70496 109.12797 34928 ft 459 kts 165°
2026-05-06 10:53 -12.76558 109.14907 34933 ft 459 kts 165°
2026-05-06 10:53 -12.82614 109.17014 34936 ft 458 kts 165°
2026-05-06 10:54 -12.88618 109.19108 34942 ft 458 kts 165°
2026-05-06 10:54 -12.94666 109.21224 34932 ft 458 kts 165°
2026-05-06 10:55 -13.00667 109.23320 34942 ft 458 kts 165°
2026-05-06 10:55 -13.06711 109.25430 34940 ft 457 kts 165°
2026-05-06 10:56 -13.12749 109.27531 34955 ft 457 kts 165°
2026-05-06 10:56 -13.18755 109.29629 34953 ft 457 kts 165°
2026-05-06 10:57 -13.24767 109.31738 34950 ft 457 kts 165°
2026-05-06 10:57 -13.30811 109.33852 34947 ft 457 kts 165°
2026-05-06 10:58 -13.36797 109.35946 34945 ft 457 kts 165°
2026-05-06 10:58 -13.42811 109.38045 34943 ft 457 kts 165°
2026-05-06 10:59 -13.48850 109.40162 34948 ft 457 kts 166°
2026-05-06 10:59 -13.54887 109.42275 34946 ft 457 kts 166°
2026-05-06 11:00 -13.60886 109.44387 34945 ft 457 kts 166°
2026-05-06 11:00 -13.66923 109.46510 34945 ft 457 kts 166°
2026-05-06 11:01 -13.72926 109.48615 34951 ft 456 kts 166°
2026-05-06 11:01 -13.78923 109.50719 34951 ft 457 kts 166°
2026-05-06 11:02 -13.84949 109.52837 34956 ft 456 kts 166°
2026-05-06 11:02 -13.90963 109.54952 34953 ft 456 kts 166°
2026-05-06 11:03 -13.96942 109.57062 34949 ft 456 kts 166°
2026-05-06 11:03 -14.02963 109.59178 34948 ft 456 kts 166°
2026-05-06 11:04 -14.08944 109.61280 34951 ft 456 kts 166°
2026-05-06 11:04 -14.13935 109.63043 34950 ft 456 kts 166°
2026-05-06 11:05 -14.19933 109.65161 34948 ft 457 kts 166°
2026-05-06 11:05 -14.25971 109.67284 34950 ft 457 kts 166°
2026-05-06 11:06 -14.31971 109.69402 34950 ft 457 kts 166°
2026-05-06 11:06 -14.38006 109.71536 34954 ft 457 kts 166°
2026-05-06 11:07 -14.44046 109.73674 34970 ft 457 kts 166°
2026-05-06 11:07 -14.50040 109.75797 34971 ft 457 kts 166°
2026-05-06 11:08 -14.56032 109.77914 34964 ft 457 kts 166°
2026-05-06 11:08 -14.62067 109.80052 34963 ft 457 kts 166°
2026-05-06 11:09 -14.68046 109.82175 34966 ft 457 kts 166°
2026-05-06 11:09 -14.74061 109.84304 34967 ft 456 kts 166°
2026-05-06 11:10 -14.80077 109.86441 34969 ft 456 kts 167°
2026-05-06 11:10 -14.86085 109.88577 34964 ft 456 kts 167°
2026-05-06 11:11 -14.92054 109.90697 34966 ft 456 kts 167°
2026-05-06 11:11 -14.98063 109.92826 34963 ft 456 kts 167°
2026-05-06 11:12 -15.04085 109.94959 34962 ft 457 kts 167°
2026-05-06 11:12 -15.10094 109.97095 34970 ft 457 kts 167°
2026-05-06 11:13 -15.16083 109.99231 34967 ft 457 kts 167°
2026-05-06 11:13 -15.22105 110.01375 34965 ft 457 kts 167°
2026-05-06 11:14 -15.28095 110.03508 34969 ft 457 kts 167°
2026-05-06 11:14 -15.34126 110.05667 34969 ft 457 kts 167°
2026-05-06 11:15 -15.40148 110.07813 34970 ft 457 kts 167°
2026-05-06 11:15 -15.46145 110.09947 34980 ft 458 kts 167°
2026-05-06 11:16 -15.52190 110.12105 34982 ft 458 kts 167°
2026-05-06 11:16 -15.58215 110.14262 34980 ft 458 kts 167°
2026-05-06 11:17 -15.64210 110.16409 34983 ft 458 kts 167°
2026-05-06 11:17 -15.70243 110.18569 34985 ft 457 kts 167°
2026-05-06 11:18 -15.76239 110.20722 34992 ft 457 kts 168°
2026-05-06 11:18 -15.82267 110.22880 34986 ft 457 kts 168°
2026-05-06 11:19 -15.88300 110.25040 34986 ft 458 kts 168°
2026-05-06 11:19 -15.94290 110.27190 34986 ft 458 kts 168°
2026-05-06 11:20 -16.00316 110.29349 34984 ft 458 kts 168°
2026-05-06 11:20 -16.06322 110.31507 35000 ft 458 kts 168°
2026-05-06 11:21 -16.12362 110.33683 34989 ft 458 kts 168°
2026-05-06 11:21 -16.18356 110.35841 34989 ft 458 kts 168°
2026-05-06 11:22 -16.24382 110.38016 34989 ft 458 kts 168°
2026-05-06 11:22 -16.30427 110.40183 34996 ft 458 kts 168°
2026-05-06 11:23 -16.36475 110.42355 35010 ft 459 kts 168°
2026-05-06 11:23 -16.42502 110.44533 35008 ft 459 kts 168°
2026-05-06 11:24 -16.48507 110.46711 35004 ft 459 kts 168°
2026-05-06 11:24 -16.54553 110.48893 35004 ft 458 kts 168°
2026-05-06 11:25 -16.60550 110.51047 35003 ft 459 kts 168°
2026-05-06 11:25 -16.66602 110.53236 35005 ft 459 kts 168°
2026-05-06 11:26 -16.72644 110.55424 35019 ft 459 kts 169°
2026-05-06 11:26 -16.78648 110.57603 35012 ft 459 kts 169°
2026-05-06 11:27 -16.84693 110.59802 35016 ft 459 kts 169°
2026-05-06 11:27 -16.90690 110.61975 35012 ft 458 kts 169°
2026-05-06 11:28 -16.96731 110.64163 35006 ft 458 kts 169°
2026-05-06 11:28 -17.02743 110.66350 35001 ft 458 kts 169°
2026-05-06 11:29 -17.08768 110.68539 34997 ft 458 kts 169°
2026-05-06 11:29 -17.14770 110.70717 34993 ft 458 kts 169°
2026-05-06 11:30 -17.20777 110.72906 34995 ft 459 kts 169°
2026-05-06 11:30 -17.26810 110.75100 35003 ft 459 kts 169°
2026-05-06 11:31 -17.32851 110.77298 35015 ft 459 kts 169°
2026-05-06 11:31 -17.38867 110.79494 35022 ft 459 kts 169°
2026-05-06 11:32 -17.44915 110.81696 35035 ft 460 kts 169°
2026-05-06 11:32 -17.50921 110.83892 35020 ft 459 kts 169°
2026-05-06 11:33 -17.56962 110.86102 35030 ft 459 kts 169°
2026-05-06 11:33 -17.63001 110.88314 35040 ft 459 kts 169°
2026-05-06 11:34 -17.68998 110.90504 35036 ft 458 kts 169°
2026-05-06 11:34 -17.75041 110.92717 35029 ft 458 kts 169°
2026-05-06 11:35 -17.81064 110.94925 35026 ft 459 kts 169°
2026-05-06 11:35 -17.87066 110.97127 35024 ft 459 kts 169°
2026-05-06 11:36 -17.93102 110.99344 35024 ft 459 kts 169°
2026-05-06 11:36 -17.99129 111.01562 35042 ft 458 kts 169°
2026-05-06 11:37 -18.05122 111.03759 35036 ft 458 kts 170°
2026-05-06 11:37 -18.11112 111.05954 35035 ft 458 kts 169°
2026-05-06 11:38 -18.17141 111.08172 35031 ft 457 kts 169°
2026-05-06 11:38 -18.23133 111.10382 35026 ft 457 kts 169°
2026-05-06 11:39 -18.29154 111.12603 35048 ft 457 kts 170°
2026-05-06 11:39 -18.35114 111.14806 35045 ft 457 kts 170°
2026-05-06 11:40 -18.41141 111.17025 35039 ft 456 kts 170°
2026-05-06 11:40 -18.47139 111.19242 35041 ft 456 kts 170°
2026-05-06 11:41 -18.53104 111.21446 35038 ft 457 kts 170°
2026-05-06 11:41 -18.59124 111.23668 35052 ft 457 kts 170°
2026-05-06 11:42 -18.65094 111.25886 35056 ft 457 kts 170°
2026-05-06 11:42 -18.71112 111.28125 35043 ft 457 kts 170°
2026-05-06 11:43 -18.77082 111.30344 35038 ft 457 kts 170°
2026-05-06 11:43 -18.83090 111.32576 35053 ft 457 kts 170°
2026-05-06 11:44 -18.92074 111.35911 35076 ft 457 kts 170°
2026-05-06 11:44 -18.98072 111.38133 35072 ft 457 kts 170°
2026-05-06 11:45 -19.04042 111.40361 35057 ft 457 kts 170°
2026-05-06 11:45 -19.10047 111.42606 35052 ft 456 kts 170°
2026-05-06 11:46 -19.16010 111.44830 35050 ft 456 kts 170°
2026-05-06 11:46 -19.22000 111.47065 35066 ft 456 kts 171°
2026-05-06 11:47 -19.27998 111.49306 35058 ft 456 kts 171°
2026-05-06 11:47 -19.33949 111.51531 35057 ft 455 kts 171°
2026-05-06 11:48 -19.39920 111.53766 35056 ft 456 kts 171°
2026-05-06 11:48 -19.45889 111.55993 35053 ft 455 kts 171°
2026-05-06 11:49 -19.51873 111.58232 35066 ft 455 kts 171°
2026-05-06 11:49 -19.57861 111.60475 35062 ft 454 kts 171°
2026-05-06 11:50 -19.63797 111.62707 35059 ft 454 kts 171°
2026-05-06 11:50 -19.69785 111.64953 35060 ft 454 kts 171°
2026-05-06 11:51 -19.75717 111.67180 35053 ft 454 kts 171°
2026-05-06 11:51 -19.81683 111.69426 35082 ft 454 kts 171°
2026-05-06 11:52 -19.87616 111.71657 35074 ft 454 kts 171°
2026-05-06 11:52 -19.93584 111.73909 35074 ft 454 kts 171°
2026-05-06 11:53 -19.99499 111.76138 35071 ft 453 kts 171°
2026-05-06 11:53 -20.05457 111.78390 35067 ft 453 kts 171°
2026-05-06 11:54 -20.11375 111.80627 35066 ft 453 kts 171°
2026-05-06 11:54 -20.17319 111.82875 35065 ft 452 kts 171°
2026-05-06 11:55 -20.23225 111.85105 35066 ft 452 kts 171°
2026-05-06 11:55 -20.29166 111.87350 35064 ft 452 kts 171°
2026-05-06 11:56 -20.35073 111.89593 35063 ft 452 kts 171°
2026-05-06 11:56 -20.41020 111.91848 35085 ft 452 kts 172°
2026-05-06 11:57 -20.45963 111.93721 35079 ft 452 kts 172°
2026-05-06 11:57 -20.52859 111.96339 35076 ft 452 kts 172°
2026-05-06 11:58 -20.57789 111.98215 35073 ft 452 kts 172°
2026-05-06 11:58 -20.63725 112.00480 35073 ft 451 kts 172°